Location: Unspecified
(0.0000°N, 0.0000°E)
Time: 13:55:52
(UTC+00:00)

Vanguard 3 - Pass Details

Date: 27 November 2019
Orbit: 508 x 3263 km, 33.3° (Epoch: 08 December)

Event Time Altitude Azimuth Distance (km) Brightness Sun altitude
Rises 20:20:09 0° 299° (WNW) 6,351 12.1 -35.1°
Reaches altitude 10° 20:25:05 10° 296° (WNW) 4,929 11.5 -36.3°
Maximum altitude 20:37:33 58° 220° (SW) 1,702 8.8 -39.0°
Enters shadow 20:38:59 52° 186° (S) 1,674 8.7 -39.3°
